| time (UTC) | temp F | wind direction | speed MPH | gust MPH | rain 1hr in | rain 24hr in | rain mn in | humidity % | barometer mb |
| 20260903062029 | 68 | 166 | 0.0 | 0.0 | 0.00 | 1.99 | 0.00 | 97 | 1011.0 |
| 20260903055836 | 68 | 172 | 0.0 | 0.0 | 0.00 | 1.99 | 0.00 | 97 | 1011.1 |
| 20260903054853 | 68 | 172 | 0.0 | 1.0 | 0.00 | 1.99 | 0.00 | 97 | 1011.1 |
| 20260903053855 | 68 | 211 | 0.0 | 0.0 | 0.00 | 1.99 | 0.00 | 97 | 1011.2 |
| 20260903052843 | 68 | 212 | 0.0 | 0.0 | 0.00 | 1.99 | 0.00 | 97 | 1011.0 |
| 20260903051819 | 68 | 157 | 0.0 | 0.0 | 0.00 | 1.99 | 0.00 | 97 | 1010.6 |
| 20260903050803 | 68 | 178 | 0.0 | 1.0 | 0.00 | 1.99 | 0.00 | 97 | 1010.8 |
| 20260903045732 | 67 | 173 | 0.0 | 5.0 | 0.00 | 1.99 | 0.00 | 97 | 1010.5 |
| 20260903044727 | 67 | 191 | 0.0 | 5.0 | 0.00 | 1.99 | 0.00 | 97 | 1010.3 |
| 20260903042611 | 67 | 195 | 0.0 | 4.0 | 0.00 | 1.99 | 0.00 | 97 | 1010.3 |
| 20260903041542 | 68 | 174 | 0.0 | 4.0 | 0.00 | 1.99 | 0.00 | 97 | 1010.2 |
| 20260903035424 | 68 | 200 | 0.0 | 0.0 | 0.00 | 1.99 | 1.98 | 97 | 1010.3 |
| 20260903034437 | 68 | 163 | 0.0 | 0.0 | 0.00 | 1.99 | 1.98 | 97 | 1010.6 |
| 20260903033013 | 68 | 195 | 0.0 | 6.0 | 0.00 | 1.99 | 1.98 | 97 | 1011.0 |
| 20260903030859 | 68 | 174 | 0.0 | 4.0 | 0.00 | 1.99 | 1.98 | 97 | 1011.2 |
| 20260903025901 | 68 | 191 | 0.0 | 4.0 | 0.00 | 1.99 | 1.98 | 97 | 1011.2 |
| 20260903024851 | 68 | 192 | 0.0 | 3.0 | 0.00 | 1.99 | 1.98 | 97 | 1011.6 |
| 20260903022728 | 68 | 164 | 0.0 | 3.0 | 0.00 | 1.99 | 1.98 | 97 | 1012.1 |
| 20260903021709 | 67 | 175 | 1.0 | 6.0 | 0.00 | 1.99 | 1.98 | 97 | 1012.0 |
| 20260903015548 | 67 | 207 | 0.0 | 3.0 | 0.00 | 1.97 | 1.98 | 97 | 1011.9 |
| 20260903014542 | 67 | 134 | 0.0 | 5.0 | 0.00 | 1.97 | 1.98 | 96 | 1011.4 |
| 20260903013606 | 67 | 178 | 1.0 | 5.0 | 0.00 | 1.96 | 1.96 | 96 | 1012.2 |
| 20260903012559 | 67 | 167 | 0.0 | 4.0 | 0.05 | 1.96 | 1.96 | 96 | 1012.5 |
| 20260903011600 | 67 | 198 | 0.0 | 4.0 | 0.05 | 1.96 | 1.96 | 96 | 1012.4 |
| 20260903010539 | 67 | 161 | 0.0 | 0.0 | 0.09 | 1.96 | 1.96 | 96 | 1012.7 |
| 20260903005559 | 67 | 165 | 0.0 | 0.0 | 0.06 | 1.94 | 1.95 | 96 | 1012.6 |
| 20260903003423 | 67 | 165 | 0.0 | 0.0 | 0.06 | 1.92 | 1.92 | 95 | 1012.1 |
| 20260903002448 | 67 | 178 | 0.0 | 0.0 | 0.10 | 1.90 | 1.91 | 95 | 1012.1 |
| 20260903000325 | 69 | 30 | 1.0 | 7.0 | 2.68 | 1.63 | 1.73 | 93 | 1013.4 |
| 20260902235305 | 70 | 106 | 1.0 | 6.0 | 1.10 | 0.85 | 0.90 | 91 | 1013.1 |
| 20260902234238 | 72 | 248 | 1.0 | 6.0 | 0.00 | 0.55 | 0.55 | 91 | 1012.7 |
| 20260902233246 | 72 | 185 | 0.0 | 6.0 | 0.04 | 0.55 | 0.55 | 91 | 1009.5 |
| 20260902232245 | 73 | 177 | 0.0 | 6.0 | 0.09 | 0.55 | 0.55 | 89 | 1010.0 |
| 20260902231250 | 75 | 179 | 3.0 | 11.0 | 5.59 | 0.32 | 0.34 | 87 | 1010.3 |
| 20260902230237 | 79 | 188 | 0.0 | 11.0 | 1.59 | 0.18 | 0.21 | 83 | 1010.9 |
| 20260902225231 | 80 | 161 | 0.0 | 0.0 | 0.00 | 0.08 | 0.08 | 81 | 1010.3 |
| 20260902224227 | 81 | 179 | 0.0 | 0.0 | 0.00 | 0.08 | 0.08 | 80 | 1010.0 |
| 20260902220939 | 82 | 192 | 0.0 | 0.0 | 0.00 | 0.08 | 0.08 | 78 | 1010.1 |
| 20260902215930 | 83 | 166 | 0.0 | 0.0 | 0.00 | 0.08 | 0.08 | 77 | 1010.4 |
| 20260902214902 | 83 | 176 | 0.0 | 0.0 | 0.00 | 0.08 | 0.08 | 76 | 1010.2 |
| 20260902211623 | 85 | 166 | 0.0 | 0.0 | 0.00 | 0.08 | 0.08 | 73 | 1010.9 |
| 20260902205453 | 87 | 155 | 0.0 | 1.0 | 0.00 | 0.08 | 0.08 | 70 | 1011.4 |
| 20260902203322 | 87 | 5 | 0.0 | 5.0 | 0.00 | 0.08 | 0.08 | 71 | 1011.9 |
| 20260902202326 | 86 | 207 | 1.0 | 5.0 | 0.00 | 0.08 | 0.08 | 73 | 1012.0 |
| 20260902201308 | 85 | 164 | 0.0 | 2.0 | 0.00 | 0.08 | 0.08 | 75 | 1012.1 |
| 20260902200234 | 84 | 171 | 1.0 | 5.0 | 0.00 | 0.08 | 0.08 | 77 | 1012.2 |
| 20260902195206 | 84 | 158 | 1.0 | 5.0 | 0.00 | 0.08 | 0.08 | 76 | 1012.3 |
| 20260902193017 | 84 | 7 | 1.0 | 4.0 | 0.00 | 0.08 | 0.08 | 75 | 1012.2 |
| 20260902191955 | 85 | 90 | 0.0 | 2.0 | 0.00 | 0.08 | 0.08 | 75 | 1012.2 |
| 20260902185835 | 86 | 164 | 0.0 | 6.0 | 0.00 | 0.08 | 0.08 | 71 | 1011.9 |
| 20260902184837 | 86 | 150 | 1.0 | 6.0 | 0.00 | 0.08 | 0.08 | 70 | 1011.7 |
| 20260902183849 | 86 | 171 | 0.0 | 3.0 | 0.00 | 0.08 | 0.08 | 72 | 1011.7 |
| 20260902182911 | 85 | 3 | 0.0 | 5.0 | 0.00 | 0.08 | 0.08 | 73 | 1011.9 |
| 20260902180743 | 85 | 313 | 1.0 | 4.0 | 0.00 | 0.08 | 0.08 | 70 | 1012.5 |
| 20260902175741 | 86 | 179 | 0.0 | 4.0 | 0.00 | 0.08 | 0.08 | 68 | 1012.6 |
| 20260902174759 | 86 | 152 | 1.0 | 5.0 | 0.00 | 0.08 | 0.08 | 70 | 1013.0 |
| 20260902173812 | 85 | 334 | 1.0 | 5.0 | 0.00 | 0.08 | 0.08 | 71 | 1013.1 |
| 20260902172826 | 85 | 203 | 1.0 | 6.0 | 0.00 | 0.08 | 0.08 | 69 | 1013.0 |
| 20260902171813 | 84 | 191 | 3.0 | 6.0 | 0.00 | 0.08 | 0.08 | 70 | 1013.0 |
| 20260902170748 | 84 | 189 | 1.0 | 5.0 | 0.00 | 0.08 | 0.08 | 72 | 1013.0 |
| 20260902165728 | 83 | 188 | 1.0 | 5.0 | 0.00 | 0.08 | 0.08 | 74 | 1012.9 |
| 20260902164657 | 83 | 176 | 1.0 | 4.0 | 0.00 | 0.08 | 0.08 | 73 | 1013.2 |
| 20260902163655 | 82 | 167 | 1.0 | 4.0 | 0.00 | 0.08 | 0.08 | 75 | 1013.3 |
| 20260902162713 | 82 | 192 | 0.0 | 4.0 | 0.00 | 0.08 | 0.08 | 75 | 1013.3 |
| 20260902161726 | 81 | 187 | 0.0 | 4.0 | 0.00 | 0.08 | 0.08 | 77 | 1013.4 |
| 20260902155522 | 80 | 187 | 0.0 | 4.0 | 0.00 | 0.08 | 0.08 | 79 | 1013.4 |
| 20260902154450 | 79 | 4 | 0.0 | 4.0 | 0.00 | 0.08 | 0.08 | 83 | 1013.5 |
| 20260902153459 | 78 | 181 | 0.0 | 1.0 | 0.00 | 0.08 | 0.08 | 81 | 1013.7 |
| 20260902150200 | 76 | 174 | 0.0 | 0.0 | 0.00 | 0.08 | 0.08 | 90 | 1013.6 |
| 20260902145136 | 75 | 153 | 0.0 | 1.0 | 0.00 | 0.08 | 0.08 | 92 | 1013.5 |
| 20260902144123 | 74 | 166 | 0.0 | 0.0 | 0.00 | 0.08 | 0.08 | 94 | 1013.5 |
| 20260902143124 | 73 | 34 | 0.0 | 0.0 | 0.00 | 0.08 | 0.08 | 96 | 1013.7 |
| 20260902142141 | 72 | 338 | 0.0 | 0.0 | 0.00 | 0.08 | 0.08 | 96 | 1014.1 |
| 20260902141121 | 72 | 177 | 0.0 | 3.0 | 0.00 | 0.08 | 0.08 | 96 | 1014.3 |
| 20260902140126 | 72 | 176 | 0.0 | 2.0 | 0.00 | 0.08 | 0.08 | 95 | 1014.4 |
| 20260902135109 | 72 | 14 | 0.0 | 0.0 | 0.00 | 0.08 | 0.08 | 96 | 1014.6 |
| 20260902134047 | 71 | 172 | 0.0 | 2.0 | 0.00 | 0.08 | 0.08 | 95 | 1014.4 |
| 20260902133108 | 71 | 169 | 0.0 | 0.0 | 0.00 | 0.06 | 0.06 | 95 | 1014.4 |
| 20260902130919 | 72 | 176 | 0.0 | 0.0 | 0.52 | 0.04 | 0.06 | 94 | 1015.0 |
| 20260902125911 | 72 | 186 | 0.0 | 0.0 | 0.18 | 0.03 | 0.03 | 94 | 1014.7 |
| 20260902124932 | 73 | 186 | 0.0 | 0.0 | 0.00 | 0.01 | 0.01 | 94 | 1014.4 |
| 20260902122841 | 73 | 186 | 0.0 | 0.0 | 0.00 | 0.00 | 0.00 | 93 | 1014.0 |
| 20260902121854 | 73 | 186 | 0.0 | 0.0 | 0.00 | 0.00 | 0.00 | 93 | 1014.2 |
| 20260902120834 | 73 | 187 | 0.0 | 0.0 | 0.00 | 0.00 | 0.00 | 93 | 1013.2 |
| 20260902115840 | 73 | 184 | 0.0 | 0.0 | 0.00 | 0.00 | 0.00 | 93 | 1013.0 |
| 20260902113732 | 72 | 169 | 0.0 | 2.0 | 0.00 | 0.00 | 0.00 | 94 | 1012.6 |
| 20260902112754 | 72 | 190 | 0.0 | 0.0 | 0.00 | 0.00 | 0.00 | 94 | 1012.1 |
| 20260902111816 | 72 | 175 | 0.0 | 1.0 | 0.00 | 0.00 | 0.00 | 94 | 1012.1 |
| 20260902110801 | 72 | 197 | 0.0 | 0.0 | 0.00 | 0.00 | 0.00 | 94 | 1012.5 |
| 20260902105824 | 72 | 163 | 0.0 | 1.0 | 0.00 | 0.00 | 0.00 | 95 | 1012.4 |
| 20260902104828 | 72 | 168 | 0.0 | 1.0 | 0.00 | 0.00 | 0.00 | 95 | 1012.3 |
| 20260902102702 | 72 | 173 | 0.0 | 2.0 | 0.00 | 0.00 | 0.00 | 95 | 1012.3 |
| 20260902101640 | 72 | 184 | 0.0 | 0.0 | 0.00 | 0.00 | 0.00 | 96 | 1012.4 |
| 20260902095531 | 71 | 172 | 0.0 | 0.0 | 0.00 | 0.00 | 0.00 | 96 | 1012.8 |
| 20260902094522 | 71 | 184 | 0.0 | 0.0 | 0.00 | 0.00 | 0.00 | 96 | 1012.7 |
| 20260902093545 | 71 | 200 | 0.0 | 0.0 | 0.00 | 0.00 | 0.00 | 96 | 1013.2 |
| 20260902092603 | 71 | 200 | 0.0 | 0.0 | 0.00 | 0.00 | 0.00 | 95 | 1013.2 |
| 20260902091543 | 71 | 200 | 0.0 | 0.0 | 0.00 | 0.00 | 0.00 | 95 | 1013.0 |
| 20260902085440 | 71 | 194 | 0.0 | 0.0 | 0.00 | 0.00 | 0.00 | 96 | 1013.3 |
| 20260902084458 | 71 | 198 | 0.0 | 1.0 | 0.00 | 0.00 | 0.00 | 96 | 1013.2 |
| 20260902083502 | 71 | 134 | 0.0 | 0.0 | 0.00 | 0.00 | 0.00 | 96 | 1013.4 |
| 20260902082436 | 71 | 158 | 0.0 | 0.0 | 0.00 | 0.02 | 0.00 | 96 | 1013.5 |
| 20260902081451 | 71 | 177 | 0.0 | 0.0 | 0.00 | 0.02 | 0.00 | 95 | 1013.7 |
| 20260902080514 | 71 | 178 | 0.0 | 0.0 | 0.00 | 0.02 | 0.00 | 95 | 1013.6 |
| 20260902074428 | 70 | 194 | 0.0 | 0.0 | 0.00 | 0.09 | 0.00 | 95 | 1013.6 |
| 20260902072236 | 70 | 194 | 0.0 | 0.0 | 0.00 | 0.09 | 0.00 | 94 | 1013.7 |
| 20260902070040 | 71 | 194 | 0.0 | 0.0 | 0.00 | 0.09 | 0.00 | 93 | 1013.8 |
| 20260902065022 | 71 | 199 | 0.0 | 0.0 | 0.00 | 0.09 | 0.00 | 93 | 1013.7 |
| 20260902064035 | 71 | 157 | 0.0 | 2.0 | 0.00 | 0.09 | 0.00 | 93 | 1013.5 |